Regional Weather Roundup
Issued by NWS Cleveland, OH

Home | Current Version | Previous Version | Graphics & Text | Print | Product List | Glossary On
Versions: 1 2 3 4 5 6 7 8 9 10 11 12 13 14 15 16 17 18 19 20 21 22 23 24 25 26 27 28 29 30 31 32 33 34 35 36 37 38 39 40 41 42 43 44 45 46 47 48 49 50
220
ASUS41 KCLE 050000
RWRCLE
OHIO REGIONAL WEATHER ROUNDUP
NATIONAL WEATHER SERVICE WILMINGTON, OH
800 PM EDT WED MAY 04 2016

NOTE: "FAIR" INDICATES FEW OR NO CLOUDS BELOW 12,000 FEET WITH NO
SIGNIFICANT WEATHER AND/OR OBSTRUCTIONS TO VISIBILITY.

OHZ001>008-015>018-024>027-034-035-043-044-050100-
   NORTHWEST OHIO

CITY           SKY/WX    TMP DP  RH WIND       PRES   REMARKS
DEFIANCE       CLOUDY    45  37  73 W9        29.69
FINDLAY        CLOUDY    48  39  71 W12       29.67
TOLEDO EXPRESS CLOUDY    46  41  82 W13       29.67
TOLEDO EXEC    CLOUDY    49  41  74 W12       29.67
LIMA           CLOUDY    46  39  76 W10       29.69
$$

OHZ009>014-019>023-028>033-038-089-050100-
   NORTHEAST OHIO

CITY           SKY/WX    TMP DP  RH WIND       PRES   REMARKS
CLE-HOPKINS    LGT RAIN  52  48  86 CALM      29.69
CLE-LAKEFRONT  CLOUDY    53  47  79 E3        29.66
CUY CO. ARPT   CLOUDY    54  45  71 NW6       29.66
LORAIN-ELYRIA  RAIN      50  47  89 CALM      29.67  FOG
ASHTABULA      CLOUDY    57  39  51 W7        29.65
AKRON-CANTON   CLOUDY    52  45  77 SW6       29.66
WOOSTER        NOT AVBL
MANSFIELD      LGT RAIN  46  45  96 W9        29.67
YOUNGSTOWN     CLOUDY    56  43  61 W9        29.64
$$

OHZ042-051>053-060>062-070>072-077>081-050100-
  SOUTHWEST OHIO

CITY           SKY/WX    TMP DP  RH WIND       PRES   REMARKS
CINC-COVINGTON FAIR      52  35  52 NW17G28   29.72
CINC-LUNKEN    FAIR      53  38  56 NW12G23   29.74
HAMILTON       CLOUDY    52  38  58 NW16G23   29.75
DAYTON         NOT AVBL
WRIGHT-PAT AFB CLOUDY    50  40  68 NW14G21   29.72
DAYTON GENERAL CLOUDY    50  37  61 NW15G25   29.72
WILMINGTON     FAIR      50  39  66 NW10G21   29.70
$$

OHZ036-037-039>041-045>050-054>059-063>069-073>076-082>088-050100-
  CENTRAL AND SOUTHEAST OHIO

CITY           SKY/WX    TMP DP  RH WIND       PRES   REMARKS
COLUMBUS       MOCLDY    51  41  68 W16       29.67
OSU AIRPORT    FAIR      50  40  68 NW14      29.68
BOLTON FIELD   NOT AVBL
RICKENBACK AFB NOT AVBL
NEWARK         CLOUDY    51  46  83 NW6       29.66
MARION         CLOUDY    48  42  80 NW12      29.68
LANCASTER      MOCLDY    51  47  86 NW3       29.68
ZANESVILLE     MOCLDY    54  49  83 W5        29.66
NEW PHILLY     LGT RAIN  53  44  71 S6        29.67
$$




USA.gov is the U.S. government's official web portal to all federal, state and local government web resources and services.